This is the latest recevied weather packets stored in our database for station/object DL9LA-13. If no packets are shown the sender has not sent any weather packets the latest 10 day(s).
| Time | Temp. | Humidity | Pressure | Rain* | Wind** | Luminosity | Snow |
|---|---|---|---|---|---|---|---|
| 1777990001 | 26.67° C | 28% | 960 hPa | - | - | - | - |
| 1777988190 | 26.67° C | 28% | 960 hPa | - | - | - | - |
| 1777986983 | 27.78° C | 27% | 960 hPa | - | - | - | - |
| 1777985776 | 26.67° C | 29% | 960 hPa | - | - | - | - |
| 1777982154 | 26.11° C | 30% | 961 hPa | - | - | - | - |
| 1777981550 | 27.22° C | 29% | 961 hPa | - | - | - | - |
| 1777979136 | 26.11° C | 33% | 962 hPa | - | - | - | - |
| 1777977325 | 24.44° C | 35% | 962 hPa | - | - | - | - |
| 1777976118 | 25° C | 37% | 962 hPa | - | - | - | - |
| 1777975514 | 25° C | 36% | 963 hPa | - | - | - | - |
| 1777972496 | 24.44° C | 42% | 963 hPa | - | - | - | - |
| 1777971892 | 23.89° C | 44% | 963 hPa | - | - | - | - |
| 1777968270 | 23.33° C | 47% | 963 hPa | - | - | - | - |
| 1777958008 | 34.44° C | 26% | 964 hPa | - | - | - | - |
| 1777957405 | 30° C | 32% | 964 hPa | - | - | - | - |
| 1777955594 | 16.11° C | 73% | 964 hPa | - | - | - | - |
| 1777954386 | 15° C | 81% | 964 hPa | - | - | - | - |
| 1777953783 | 14.44° C | 83% | 964 hPa | - | - | - | - |
| 1777953179 | 15° C | 82% | 965 hPa | - | - | - | - |
| 1777941106 | 18.33° C | 57% | 965 hPa | - | - | - | - |
| 1777939295 | 18.33° C | 58% | 965 hPa | - | - | - | - |
| 1777934466 | 20° C | 44% | 966 hPa | - | - | - | - |
| 1777933863 | 20° C | 43% | 966 hPa | - | - | - | - |
| 1777933259 | 20° C | 44% | 966 hPa | - | - | - | - |
| 1777930845 | 18.89° C | 46% | 966 hPa | - | - | - | - |
* Rain since midnight (hover to see other rain measurements)
** Current wind speed in m/s (hover to see current wind gust speed)